Главная страница
METAR-TAF:

METAR-TAF

Аэропорты :

Игл

Eagle, Аляска, США

широта: 64-46-35N, долгота: 141-09-03W, высота над уровнем моря: 268 м

Текущие метеонаблюдения

Эта сводка был подготовлена 20 минут назад, в 12:03 UTC
Штиль
Температура 1°C
Влажность 93%
Давление 992 hPa
Видимость: 16.1 км
Сплошная облачность на высоте 500 фута

METAR: PAEG 201203Z AUTO 00000KT 10SM OVC005 01/00 A2930 RMK AO2 T00060000 TSNO $

Время: 04:23 (12:23 UTC)


TAF: отсутствует

Метеонаблюдения и прогнозы для более 4000 аэропортов (сводки METAR и TAF).

Имеющиеся станции представлены на карте желтыми и красными точками.

Чтобы увидеть название станции, наведите на нее мышь.

Затем щелкните, чтобы увидеть метеонаблюдения и метеопрогнозы.

Управление картой: чтобы увеличить масштаб, щелкните зеленые кнопки с черным крестиком; чтобы уменьшить масштаб, щелкните зеленую кнопку с тире; для просмотра соседних карт щелкайте зеленые стрелки.


METAR-TAF: